Airfield :
LOGIN :

Register | Disclaimer

   EN    FR    IT 

 










Legend :    VFR   Marginal VFR   IFR   Intensive IFR   Very Intensive IFR
Visi :
Ceiling :
>= 8 km
>= 3000ft
5 to 8 km
1000 to 3000 ft
1500m to 5 km
500 to 1000 ft
800 to 1500m
200 to 500 ft
< 800m
< 200 ft
Symbols :   Thunderstorms  Fog  Heavy snow  Heavy precipitations  Wind > 20 kt
SIGMETs :     Misc.  Thunderstorms  Icing  Turbulence  Mountain Waves  Volcanic Ashes







- Airport Elevation : 59 ft
- IATA code : TSF


LIPH - Treviso

CURRENT METAR :
  • 140950Z VRB03KT 9999 FEW020 26/19 Q1011

EXPIRED METARs :
  • 140920Z VRB03KT 9999 FEW020 26/20 Q1012
  • 140850Z VRB03KT 9999 FEW015 25/20 Q1012
  • 140820Z VRB03KT 9999 FEW015 24/20 Q1011
  • 140750Z VRB03KT 8000 SCT010 23/20 Q1011
  • 140720Z VRB02KT 8000 FEW010 22/20 Q1011

TAF TAF LIPH
Valid from the 14 at 06:00 until the 15 at 06:00 UTC


140500Z 1406/1506 VRB05KT 9999 SCT030
TEMPO 1406/1418 TSRA
No reported NOTAMs for that airfield.



MET'MAP, your aeronautical weather chart ! - Copyright ORBIFLY December 2007 - Disclaimer

ORBIFLY MET'MAP TEAM :

Programming & Development : Alexandra Zaïnal
Concept & Development : Baudouin d'Aumeries
Co-Development & Prog : Marc-Olivier Méhu
Technical & hardware support : Manuel Goepfert

Contact : metmap@orbifly.com




SOURCES & CREDITS :

   NOAA